Regional Weather Roundup
Issued by NWS State College, PA

Home | Current Version | Previous Version | Text Only | Print | Product List | Glossary On
Versions: 1 2 3 4 5 6 7 8 9 10 11 12 13 14 15 16 17 18 19 20 21 22 23 24 25 26 27 28 29 30 31 32 33 34 35 36 37 38 39 40 41 42 43 44 45 46 47 48 49 50
018
ASUS41 KCTP 292303
RWRCTP

REGIONAL WEATHER ROUNDUP
NATIONAL WEATHER SERVICE STATE COLLEGE PA
700 PM EDT THU SEP 29 2016

Note: "fair" indicates few or no clouds below 12,000 feet with no
significant weather and/or obstructions to visibility.

* = STATION THAT DOES NOT REPORT PRECIPITATION /E.G. RAIN...SNOW...ETC/
    THUNDER OR FOG.

PAZ002>004-007>009-013>016-020>023-029>032-300000-
WESTERN PENNSYLVANIA

CITY           SKY/WX    TMP DP  RH WIND       PRES   REMARKS
ERIE           CLOUDY    64  60  87 E7        30.19S
MEADVILLE      CLOUDY    61  55  81 E12       30.18R
FRANKLIN*        N/A     57  54  88 E10       30.20S
NEW CASTLE     CLOUDY    63  58  83 VRB5      30.16R
BEAVER COUNTY  CLOUDY    63  57  82 E6        30.14R
BUTLER*        CLOUDY    61  55  82 E18G24    30.16S
PITTSBURGH INT CLOUDY    64  59  83 E16       30.11R
PITTSBURGH     MOCLDY    63  57  81 E10       30.10S
INDIANA*       CLOUDY    59  57  94 E12G20    30.19S FOG
LATROBE        MOCLDY    63  59  88 E14       30.13S
WASHINGTON CO* CLOUDY    66  57  72 E12G17    30.10S
$$

PAZ004>006-010>012-017>019-024>028-033>037-041-042-045-046-049>053-300000-
CENTRAL PENNSYLVANIA

CITY           SKY/WX    TMP DP  RH WIND       PRES   REMARKS
BRADFORD       CLOUDY    56  55  97 E14G21    30.27R
DUBOIS         CLOUDY    57  53  86 E15G26    30.22R
CLEARFIELD     CLOUDY    56  56 100 E10       30.26R FOG
JOHNSTOWN      CLOUDY    57  56  96 E12G22    30.17R FOG
ALTOONA        LGT RAIN  57  57 100 NE9G20    30.21S FOG
STATE COLLEGE  DRIZZLE   57  55  94 E9G21     30.27R FOG
WILLIAMSPORT   CLOUDY    60  56  86 E5        30.30R
SELINSGROVE    CLOUDY    60  56  86 E5        30.30R
FT INDIANTOWN  CLOUDY    59  55  85 E10G16    30.27R
CAPITAL CITY   CLOUDY    61  57  87 E12       30.26R FOG
HARRISBURG     CLOUDY    60  59  96 E14G21    30.24F FOG
YORK           LGT RAIN  60  60 100 E14       30.23S FOG
$$

PAZ038>040-043-044-047-048-054-055-060>062-067>071-300000-
EASTERN PENNSYLVANIA

CITY           SKY/WX    TMP DP  RH WIND       PRES   REMARKS
SCRANTON       CLOUDY    60  50  69 VRB6      30.32R
MOUNT POCONO     N/A     53  48  83 E13       30.33S
ALLENTOWN      LGT RAIN  60  54  80 E9        30.30S
QUAKERTOWN*    CLOUDY    57  55  94 E12G23    30.31S
READING        CLOUDY    61  53  75 NE9G22    30.28R
LANCASTER      CLOUDY    60  59  96 E14       30.26R
COATESVILLE    LGT RAIN  59  57  94 E17G29    30.27R
POTTSTOWN      LGT RAIN  58  56  93 E9G28     30.29S
BLUE BELL      CLOUDY    57  55  94 E14G22    30.28S
DOYLESTOWN     LGT RAIN  59  57  93 VRB5      30.30R
WILLOW GROVE   NOT AVBL
NORTH PHILA    LGT RAIN  62  59  90 E15G25    30.32R
PHILADELPHIA   RAIN      62  59  90 E18G28    30.28R
$$




USA.gov is the U.S. government's official web portal to all federal, state and local government web resources and services.